TimePST,TemperatureF,Dew PointF,Humidity,Sea Level PressureIn,VisibilityMPH,Wind Direction,Wind SpeedMPH,Gust SpeedMPH,PrecipitationIn,Events,Conditions,WindDirDegrees,DateUTC
12:54 AM,46.9,39.9,77,30.17,10.0,ENE,3.5,-,N/A,,Clear,60,2013-01-09 08:54:00
1:54 AM,45.0,39.9,82,30.17,9.0,Calm,Calm,-,N/A,,Clear,0,2013-01-09 09:54:00
2:54 AM,44.1,39.9,85,30.16,8.0,ESE,3.5,-,N/A,,Clear,110,2013-01-09 10:54:00
3:54 AM,42.1,39.0,89,30.16,6.0,Calm,Calm,-,N/A,,Clear,0,2013-01-09 11:54:00
5:54 AM,44.1,39.9,85,30.14,6.0,Calm,Calm,-,N/A,,Clear,0,2013-01-09 13:54:00
8:54 AM,46.0,41.0,83,30.15,5.0,East,4.6,-,N/A,,Haze,90,2013-01-09 16:54:00
9:35 AM,48.2,42.8,82,30.12,5.0,Calm,Calm,-,N/A,,Haze,0,2013-01-09 17:35:00
9:54 AM,48.9,44.1,83,30.14,5.0,Calm,Calm,-,N/A,,Haze,0,2013-01-09 17:54:00
10:54 AM,50.0,44.1,80,30.13,5.0,Calm,Calm,-,N/A,,Haze,0,2013-01-09 18:54:00
11:09 AM,50.0,44.6,82,30.09,5.0,South,4.6,-,N/A,,Haze,170,2013-01-09 19:09:00
11:54 AM,51.1,46.0,83,30.10,4.0,South,3.5,-,N/A,,Haze,180,2013-01-09 19:54:00
12:09 PM,51.8,46.4,82,30.06,4.0,Calm,Calm,-,N/A,,Haze,0,2013-01-09 20:09:00
12:54 PM,52.0,46.0,80,30.07,4.0,SSW,4.6,-,N/A,,Haze,200,2013-01-09 20:54:00
1:54 PM,52.0,46.0,80,30.06,5.0,South,3.5,-,N/A,,Haze,180,2013-01-09 21:54:00
2:54 PM,53.1,46.9,80,30.04,9.0,SW,8.1,-,N/A,,Overcast,220,2013-01-09 22:54:00
3:12 PM,51.8,46.4,82,30.02,2.5,SW,10.4,-,0.00,Rain,Light Rain,220,2013-01-09 23:12:00
3:18 PM,51.8,48.2,88,30.02,1.0,SSW,9.2,-,0.01,Rain,Rain,210,2013-01-09 23:18:00
3:31 PM,51.8,48.2,88,30.02,3.0,West,11.5,-,0.02,Rain,Light Rain,260,2013-01-09 23:31:00
3:54 PM,51.1,46.9,86,30.04,10.0,WNW,15.0,20.7,0.02,,Overcast,290,2013-01-09 23:54:00
4:08 PM,50.0,46.4,87,30.01,10.0,WNW,17.3,26.5,N/A,,Overcast,300,2013-01-10 00:08:00
4:22 PM,51.8,44.6,76,30.02,10.0,WNW,17.3,25.3,N/A,,Overcast,300,2013-01-10 00:22:00
4:40 PM,51.8,44.6,76,30.02,10.0,WNW,19.6,25.3,N/A,,Overcast,290,2013-01-10 00:40:00
4:54 PM,50.0,44.1,80,30.05,10.0,WNW,18.4,24.2,N/A,,Overcast,290,2013-01-10 00:54:00
5:54 PM,50.0,37.9,63,30.05,10.0,WNW,11.5,-,N/A,,Overcast,290,2013-01-10 01:54:00
6:54 PM,48.9,39.9,71,30.07,10.0,WNW,10.4,-,N/A,,Overcast,290,2013-01-10 02:54:00
7:54 PM,48.0,37.9,68,30.08,10.0,West,10.4,-,N/A,,Scattered Clouds,280,2013-01-10 03:54:00
8:54 PM,46.9,37.0,68,30.09,10.0,WNW,12.7,-,N/A,,Clear,290,2013-01-10 04:54:00
9:54 PM,46.9,36.0,66,30.11,10.0,WNW,9.2,-,N/A,,Clear,290,2013-01-10 05:54:00
10:54 PM,43.0,35.1,74,30.12,10.0,WNW,6.9,-,N/A,,Clear,300,2013-01-10 06:54:00
11:54 PM,45.0,36.0,71,30.12,10.0,Calm,Calm,-,N/A,,Clear,0,2013-01-10 07:54:00